sat.trackr.live / text

‹ back to catalog

STARLINK-32405

NORAD 61636 · 2024-191R

PAYLOAD ACTIVE UNKNOWN

§ Identity

Operator
Country
US
Launch date
2024-10-23
Launch site
AFETR
Launch vehicle
Mass (kg)
RCS (m²)

Purposes: comms

External: N2YO · Heavens-Above · Gunter

§ Orbital elements

Epoch: 2026-05-25T03:17:13.860672Z

Period
94.27 min
Inclination
43.0045°
Eccentricity
0.0001417
Mean motion
15.27573311 rev/d
Perigee alt
482.1 km
Apogee alt
484.0 km
Semi-major
6,861.2 km
B*
5.0245e-5
RAAN
86.6145°
Arg perigee
274.3866°
Mean anomaly
85.6824°
Rev number
8,918

§ Raw data

STARLINK-324051 61636U 24191R   26145.13696598  .00001120  00000+0  50245-4 0  99972 61636  43.0045  86.6145 0001417 274.3866  85.6824 15.27573311 89183

JSON: /api/v1/satellites/61636 · /tle

For live sub-satellite position, see the globe view (requires WebGL).

§ Visibility from observer

Set your observer location to see the next 7 days of passes ≥ 10°. The values pass through the URL so the page stays shareable.

No JS? Fill the form by hand. The geolocation button needs JavaScript.